Location: Erdweis
(48.5167°N, 15.3500°E)
Time: 16:50:24
(UTC+00:00)

NOSS 3-2 (C) - Pass Details

Date: 18 September 2020
Orbit: 795 x 1418 km, 63.4° (Epoch: 25 October)

Event Time Altitude Azimuth Distance (km) Brightness Sun altitude
Rises 18:44:16 0° 317° (NW) 3,887 7.9 -16.9°
Reaches altitude 10° 18:46:49 10° 321° (NW) 3,014 7.0 -17.3°
Maximum altitude 18:54:07 67° 44° (NE) 1,350 4.1 -18.4°
Enters shadow 18:58:45 28° 119° (ESE) 2,240 4.8 -19.1°
